User: anonymous
Location: Unspecified
(0.0000°N, 0.0000°E)
Time: 06:56:57
(UTC+00:00)
Language:

GOSAT - Orbit

View from above orbital plane
View from above orbital plane
View from above satellite
View from above satellite

Ground track
Ground track

The orbit data is extracted from the following two-line orbital elements,

1 33492U 09002A   14244.83849549 -.00000057  00000-0 -15795-5 0  8699
2 33492 098.0570 353.1406 0001360 080.2813 279.8573 14.67555284300322
Epoch (UTC): 01 September 2014 20:07:26
Eccentricity: 0.0001360
inclination: 98.0570°
perigee height: 668 km
apogee height: 670 km
right ascension of ascending node: 353.1406°
argument of perigee: 80.2813°
revolutions per day: 14.67555284
mean anomaly at epoch: 279.8573°
orbit number at epoch: 30032

The dashed part of the orbit path shows where the satellite is in the earth's shadow,  

DLR